Stations météo

réclame
Mon MeteoGroup
Jersey Airport, Grande-Bretagne (3895): Température de l'air & dewpoint: 14.10.2018 20:00:00 - 20.10.2018 20:00:00 (BST)Jersey Airport, Grande-Bretagne (3895): Température de l'air -20cm & Température de l'air -100cm: 14.10.2018 20:00:00 - 20.10.2018 20:00:00 (BST)Jersey Airport, Grande-Bretagne (3895): Vitesse du vent & gusts: 14.10.2018 20:00:00 - 20.10.2018 20:00:00 (BST)Jersey Airport, Grande-Bretagne (3895): Direction du vent: 14.10.2018 20:00:00 - 20.10.2018 20:00:00 (BST)Jersey Airport, Grande-Bretagne (3895): reduced air pressure: 14.10.2018 20:00:00 - 20.10.2018 20:00:00 (BST)Jersey Airport, Grande-Bretagne (3895): visibility: 14.10.2018 20:00:00 - 20.10.2018 20:00:00 (BST)Jersey Airport, Grande-Bretagne (3895): Ensoleillement: 14.10.2018 20:00:00 - 20.10.2018 20:00:00 (BST)Jersey Airport, Grande-Bretagne (3895): Quantités de précipitations: 14.10.2018 20:00:00 - 20.10.2018 20:00:00 (BST)
Date & Time tt [°C] td [°C] tt -20cm [°C] tt -100cm [°C] ff [km/h] ff [knt] fx [km/h] fx [knt] dd ppp [hPa] vv [km] sd [min] rr [mm]
20.10.2018 20:00:00 10,7 8,6 - - 15 8 - - E 1030,7 10 0 0,0
20.10.2018 19:00:00 12,9 11,2 - - 13 7 - - NE 1030,4 10 0 0,0
20.10.2018 18:00:00 13,5 10,9 - - 8 4 - - NNE 1030,1 10 54 0,0
20.10.2018 17:00:00 14,7 11,1 - - 13 7 - - NNE 1030,1 10 60 0,0
20.10.2018 16:00:00 15,9 10,2 - - 16 9 - - ENE 1030,3 10 60 0,0
20.10.2018 15:00:00 15,7 10,4 - - 18 10 - - E 1030,8 10 60 0,0
20.10.2018 14:00:00 15,8 10,5 - - 18 10 - - ENE 1031,3 10 60 0,0
20.10.2018 13:00:00 15,5 10,0 - - 15 8 - - E 1031,9 10 60 0,0
20.10.2018 12:00:00 15,3 10,0 - - 15 8 - - E 1032,2 10 60 0,0
20.10.2018 11:00:00 14,7 9,8 - - 13 7 - - E 1032,0 10 60 -
20.10.2018 10:00:00 13,5 10,2 15,0 15,0 15 8 - - ESE 1031,6 10 24 0,0
20.10.2018 09:00:00 12,2 10,3 - - 13 7 - - E 1031,8 10 0 0,0
20.10.2018 08:00:00 11,1 10,0 - - 11 6 - - E 1030,8 10 0 0,0
20.10.2018 07:00:00 10,5 9,2 - - 13 7 - - E 1030,1 11 0 0,0
20.10.2018 06:00:00 11,6 9,9 - - 13 7 - - ENE 1029,5 10 0 0,0
20.10.2018 05:00:00 11,9 10,1 - - 13 7 - - ENE 1029,0 10 0 0,0
20.10.2018 04:00:00 11,4 9,4 - - 9 5 - - ENE 1029,1 10 0 0,0
20.10.2018 03:00:00 11,7 9,7 - - 11 6 - - ENE 1028,8 10 0 0,0
20.10.2018 02:00:00 11,9 9,9 - - 13 7 - - NE 1028,6 10 0 0,0
20.10.2018 01:00:00 12,0 9,7 - - 11 6 - - ENE 1028,6 10 - 0,0
20.10.2018 00:00:00 12,1 9,7 - - 11 6 - - NE 1028,6 10 0 0,0
19.10.2018 23:00:00 12,5 9,9 - - 9 5 - - NE 1028,8 10 0 0,0
19.10.2018 22:00:00 12,8 10,0 - - 13 7 - - NE 1028,5 10 0 0,0
19.10.2018 21:00:00 12,5 10,0 - - 9 5 - - NE 1028,1 10 0 0,0
19.10.2018 20:00:00 12,8 10,0 - - 9 5 - - NE 1027,5 10 0 0,0
19.10.2018 19:00:00 13,1 9,7 - - 9 5 - - NE 1026,5 10 0 0,0
19.10.2018 18:00:00 14,3 9,8 - - 15 8 - - NE 1025,9 30 60 0,0
19.10.2018 17:00:00 15,1 10,5 - - 22 12 - - NNE 1025,7 10 60 0,0
19.10.2018 16:00:00 15,6 10,7 - - 18 10 - - NNE 1025,3 10 30 0,0
19.10.2018 15:00:00 16,1 11,2 - - 16 9 - - NNE 1025,3 10 36 0,0
19.10.2018 14:00:00 16,8 11,5 - - 16 9 - - NE 1025,0 10 48 0,0
19.10.2018 13:00:00 15,6 10,9 - - 18 10 - - NE 1025,1 10 36 0,0
19.10.2018 12:00:00 15,5 11,4 - - 16 9 - - ENE 1025,2 10 60 0,0
19.10.2018 11:00:00 15,2 11,8 - - 15 8 - - NE 1025,2 10 48 0,0
19.10.2018 10:00:00 14,5 12,3 15,2 15,2 16 9 - - NE 1025,0 10 12 0,0
19.10.2018 09:00:00 13,7 12,1 - - 9 5 - - NE 1025,0 10 0 0,0
19.10.2018 08:00:00 12,9 12,0 - - 13 7 - - NE 1024,1 10 0 0,0
19.10.2018 07:00:00 11,6 10,7 - - 9 5 - - NE 1023,8 10 0 0,0
19.10.2018 06:00:00 12,0 11,0 - - 9 5 - - NE 1023,9 10 0 0,0
19.10.2018 05:00:00 11,6 10,7 - - 11 6 - - ENE 1023,8 10 0 0,0
19.10.2018 04:00:00 12,3 11,0 - - 13 7 - - NE 1024,0 14 0 0,0
19.10.2018 03:00:00 12,6 11,1 - - 9 5 - - NE 1024,0 10 0 0,0
19.10.2018 02:00:00 13,4 11,4 - - 13 7 - - ENE 1024,1 10 0 0,0
19.10.2018 01:00:00 12,9 11,1 - - 21 11 - - E 1023,9 10 - 0,0
19.10.2018 00:00:00 13,2 11,1 - - 21 11 - - ENE 1023,8 18 0 0,0
18.10.2018 23:00:00 13,5 11,1 - - 16 9 - - ENE 1024,0 10 0 0,0
18.10.2018 22:00:00 13,9 11,5 - - 16 9 - - NE 1024,0 10 0 0,0
18.10.2018 21:00:00 14,4 11,9 - - 22 12 - - ENE 1023,9 10 0 0,0
18.10.2018 20:00:00 14,9 12,9 - - 15 8 - - NE 1023,8 10 0 0,0
18.10.2018 19:00:00 15,1 12,9 - - 18 10 - - ENE 1023,3 10 0 0,0
18.10.2018 18:00:00 15,3 13,1 - - 21 11 - - ENE 1023,0 10 0 0,0
18.10.2018 17:00:00 15,5 13,2 - - 18 10 - - ENE 1023,0 10 6 0,0
18.10.2018 16:00:00 15,7 13,3 - - 24 13 - - ENE 1022,8 10 0 0,0
18.10.2018 15:00:00 14,7 13,6 - - 24 13 - - NE 1023,1 5 0 0,0
18.10.2018 14:00:00 15,0 14,0 - - 18 10 - - NE 1023,7 10 0 0,2
18.10.2018 13:00:00 15,8 13,9 - - 18 10 - - NE 1024,1 13 0 0,0
18.10.2018 12:00:00 15,2 13,6 - - 18 10 - - NE 1024,3 6 0 0,0
18.10.2018 11:00:00 15,5 13,7 - - 16 9 - - NE 1024,0 10 0 0,0
18.10.2018 10:00:00 15,4 13,6 15,2 15,2 15 8 - - NE 1023,7 10 0 0,0
18.10.2018 09:00:00 14,9 13,4 - - 18 10 - - ENE 1023,3 10 0 0,0
18.10.2018 08:00:00 14,6 13,3 - - 16 9 - - ENE 1023,0 10 0 0,0
18.10.2018 07:00:00 14,5 13,2 - - 21 11 - - ENE 1022,7 10 0 0,0
18.10.2018 06:00:00 14,8 13,2 - - 18 10 - - ENE 1022,5 10 0 0,0
18.10.2018 05:00:00 14,6 12,9 - - 22 12 - - ENE 1022,0 16 0 0,0
18.10.2018 04:00:00 14,5 12,7 - - 16 9 - - ENE 1022,2 10 0 0,0
18.10.2018 03:00:00 14,5 12,5 - - 22 12 - - NE 1022,2 10 0 0,0
18.10.2018 02:00:00 14,3 12,6 - - 22 12 - - NE 1022,1 14 0 0,0
18.10.2018 01:00:00 14,3 12,7 - - 15 8 - - NE 1022,1 10 - 0,0
18.10.2018 00:00:00 14,0 12,6 - - 16 9 - - NE 1022,0 10 0 0,0
17.10.2018 23:00:00 13,8 11,9 - - 13 7 - - NE 1021,7 10 0 0,0
17.10.2018 22:00:00 13,4 11,7 - - 13 7 - - NE 1021,5 10 0 0,0
17.10.2018 21:00:00 12,9 11,1 - - 11 6 - - ENE 1021,2 10 0 0,0
17.10.2018 20:00:00 13,3 10,8 - - 13 7 - - NE 1020,6 30 0 0,0
17.10.2018 19:00:00 12,5 9,9 - - 15 8 - - NNE 1019,9 45 0 0,0
17.10.2018 18:00:00 13,8 9,4 - - 5 3 - - NNE 1019,4 10 18 0,0
17.10.2018 17:00:00 15,3 9,8 - - 8 4 - - ESE 1018,9 10 60 0,0
17.10.2018 16:00:00 15,6 9,6 - - 11 6 - - SE 1018,7 50 60 0,0
17.10.2018 15:00:00 15,8 9,1 - - 11 6 - - SE 1018,5 40 60 0,0
17.10.2018 14:00:00 15,8 11,6 - - 13 7 - - SE 1018,6 28 54 0,0
17.10.2018 13:00:00 15,1 11,5 - - 16 9 - - SE 1018,9 35 18 0,0
17.10.2018 12:00:00 15,3 12,5 - - 16 9 - - S 1019,0 10 18 0,0
17.10.2018 11:00:00 14,3 11,7 - - 11 6 - - S 1019,1 45 24 0,0
17.10.2018 10:00:00 14,7 11,0 15,2 15,4 11 6 - - S 1019,0 10 60 0,0
17.10.2018 09:00:00 13,1 11,9 - - 5 3 - - SE 1018,8 10 18 0,0
17.10.2018 08:00:00 11,3 10,6 - - 5 3 - - S 1018,6 27 0 0,0
17.10.2018 07:00:00 11,1 10,0 - - 5 3 - - S 1018,5 10 0 0,0
17.10.2018 06:00:00 11,2 9,9 - - 4 2 - - SSW 1018,4 10 0 0,0
17.10.2018 05:00:00 11,3 9,8 - - 11 6 - - SW 1018,2 10 0 0,0
17.10.2018 04:00:00 9,9 8,6 - - 11 6 - - SW 1018,2 10 0 0,0
17.10.2018 03:00:00 9,7 8,2 - - 13 7 - - WSW 1018,6 50 0 0,0
17.10.2018 02:00:00 10,3 8,5 - - 13 7 - - WSW 1018,8 10 0 0,0
17.10.2018 01:00:00 11,7 10,1 - - 11 6 - - SW 1018,9 10 - 0,0
17.10.2018 00:00:00 12,4 11,5 - - 2 1 - - - 1019,1 10 0 0,0
16.10.2018 23:00:00 11,7 10,9 - - 4 2 - - SSW 1019,1 10 0 0,2
16.10.2018 22:00:00 11,6 11,0 - - 2 1 - - S 1019,2 10 0 0,0
16.10.2018 21:00:00 12,1 11,0 - - 5 3 - - WNW 1019,1 24 0 0,0
16.10.2018 20:00:00 13,0 11,5 - - 5 3 - - WNW 1018,9 10 0 0,0
16.10.2018 19:00:00 13,0 11,2 - - 5 3 - - W 1018,5 10 0 0,0
16.10.2018 18:00:00 13,9 12,2 - - 11 6 - - W 1018,2 45 0 0,0
16.10.2018 17:00:00 14,2 13,1 - - 11 6 - - W 1018,0 10 0 0,0
16.10.2018 16:00:00 13,8 13,5 - - 13 7 - - W 1017,8 10 0 0,0
16.10.2018 15:00:00 13,8 13,4 - - 16 9 - - W 1017,6 4,0 0 0,0
16.10.2018 14:00:00 14,5 13,5 - - 13 7 - - W 1017,3 10 0 0,0
16.10.2018 13:00:00 14,9 14,0 - - 11 6 - - W 1017,1 10 0 0,0
16.10.2018 12:00:00 15,1 14,6 - - 13 7 - - WNW 1016,8 8 0 0,0
16.10.2018 11:00:00 15,4 15,2 - - 8 4 - - SSE 1016,3 7 0 0,0
16.10.2018 10:00:00 15,3 15,2 15,7 15,5 8 4 - - SW 1016,2 8 0 0,0
16.10.2018 09:00:00 14,4 14,4 - - 5 3 - - S 1015,7 10 0 0,0
16.10.2018 08:00:00 12,8 12,8 - - 8 4 - - SE 1015,0 10 0 0,0
16.10.2018 07:00:00 13,0 13,0 - - 4 2 - - S 1014,7 10 0 0,0
16.10.2018 06:00:00 13,9 13,9 - - 4 2 - - SSE 1013,9 10 0 0,0
16.10.2018 05:00:00 13,6 13,5 - - 5 3 - - S 1013,8 5 0 0,0
16.10.2018 04:00:00 12,9 12,8 - - 5 3 - - E 1013,5 10 0 0,0
16.10.2018 03:00:00 13,5 13,2 - - 4 2 - - SSW 1013,2 16 0 0,0
16.10.2018 02:00:00 12,8 11,7 - - 13 7 - - ESE 1013,2 10 0 0,0
16.10.2018 01:00:00 13,6 13,4 - - 21 11 - - E 1012,9 10 - 0,0
16.10.2018 00:00:00 12,8 12,4 - - 18 10 - - E 1013,2 10 0 0,0
15.10.2018 23:00:00 13,4 12,7 - - 11 6 - - ENE 1013,1 10 0 0,0
15.10.2018 22:00:00 13,3 12,4 - - 9 5 - - NE 1012,9 10 0 0,0
15.10.2018 21:00:00 13,2 12,3 - - 9 5 - - NE 1012,6 10 0 0,0
15.10.2018 20:00:00 12,8 12,2 - - 8 4 - - ENE 1012,0 10 0 0,0
15.10.2018 19:00:00 13,7 12,5 - - 5 3 - - ENE 1011,5 10 6 0,0
15.10.2018 18:00:00 15,0 13,0 - - 15 8 - - SE 1011,0 25 24 0,0
15.10.2018 17:00:00 15,0 13,1 - - 16 9 - - ESE 1010,9 40 0 0,0
15.10.2018 16:00:00 15,3 13,3 - - 18 10 - - SSE 1010,2 10 0 0,0
15.10.2018 15:00:00 15,3 13,7 - - 21 11 - - SE 1009,5 19 0 0,0
15.10.2018 14:00:00 15,3 13,9 - - 24 13 - - SSE 1009,4 10 0 0,0
15.10.2018 13:00:00 14,9 14,0 - - 24 13 - - SSE 1008,8 27 0 0,0
15.10.2018 12:00:00 14,9 14,1 - - 22 12 - - SSE 1008,6 10 0 0,0
15.10.2018 11:00:00 15,1 14,4 - - 26 14 - - SSE 1007,6 10 0 0,0
15.10.2018 10:00:00 15,0 14,5 15,7 15,5 24 13 - - SE 1007,1 10 0 0,0
15.10.2018 09:00:00 14,8 14,1 - - 18 10 - - SSE 1006,6 10 0 0,0
15.10.2018 08:00:00 14,4 14,1 - - 16 9 - - SSE 1005,6 10 0 0,0
15.10.2018 07:00:00 14,7 14,4 - - 16 9 - - SSE 1005,1 7 0 0,0
15.10.2018 06:00:00 14,8 14,5 - - 16 9 - - SSE 1004,6 5 0 0,2
15.10.2018 05:00:00 15,2 15,0 - - 18 10 - - SE 1004,2 6 0 0,6
15.10.2018 04:00:00 14,6 14,5 - - 11 6 - - ENE 1004,5 1,3 0 0,0
15.10.2018 03:00:00 14,2 13,7 - - 15 8 - - NE 1004,5 10 0 0,0
15.10.2018 02:00:00 14,0 13,3 - - 15 8 - - NE 1004,6 10 0 0,0
15.10.2018 01:00:00 13,8 13,3 - - 22 12 - - NE 1004,3 10 - 0,0
15.10.2018 00:00:00 13,5 12,8 - - 28 15 - - NNE 1004,4 17 0 0,0
14.10.2018 23:00:00 13,5 12,8 - - 29 16 - - NNE 1005,2 10 0 0,0
14.10.2018 22:00:00 13,6 12,8 - - 31 17 46 25 NNE 1005,2 10 0 0,0
14.10.2018 21:00:00 13,5 13,0 - - 31 17 46 25 NNE 1005,1 11 0 0,0
14.10.2018 20:00:00 13,5 13,1 - - 22 12 - - NNE 1004,8 10 0 0,4

tt = Température de l'air
td = dewpoint
tt -20cm = Température de l'air -20cm
tt -100cm = Température de l'air -100cm
ff = Vitesse du vent
fx = gusts
dd = Direction du vent
ppp = reduced air pressure
vv = visibility
sd = Ensoleillement
rr = Quantités de précipitations

stations d'obs. à proximité